Marshfield, WI

12:31 AM CST on January 17, 2018 (GMT -0600)
Marshfield Municipal

Weather History for KMFI - July, 2011

Change the Weather History Date:

Sunday, July 10, 2011

  Actual Average Record
Temperature  
Mean Temperature 77 °F -  
Max Temperature 84 °F 82 °F 95 °F (1921)
Min Temperature 70 °F 58 °F 43 °F (1913)
Cooling Degree Days 12    
Growing Degree Days 27 (Base 50)    
Moisture  
Dew Point 69 °F    
Average Humidity 82    
Maximum Humidity 94    
Minimum Humidity 65    
Precipitation  
Precipitation 0.18 in - - ()
Sea Level Pressure  
Sea Level Pressure 29.85 in    
Wind  
Wind Speed 6 mph (SSW)    
Max Wind Speed 13 mph    
Max Gust Speed -    
Visibility 8 miles    
Events Rain , Thunderstorm    
Averages and records for this station are not official NWS values.
T = Trace of Precipitation, MM = Missing Value Source: NWS Daily Summary

Daily Weather History Graph

Daily Weather History Graph

Search for Another Location

Airport or City:

Trip Planner

Search our weather history database for the weather conditions in past years. The results will help you decide how hot, cold, wet, or windy it might be!

Date:

Astronomy

Jul. 10, 2011 Rise Set
Actual Time 5:25 AM CDT 8:46 PM CDT
Civil Twilight 4:49 AM CDT 9:22 PM CDT
Nautical Twilight 4:01 AM CDT 10:09 PM CDT
Astronomical Twilight 3:02 AM CDT 11:08 PM CDT
Moon 4:36 PM CDT (7/10) 1:10 AM CDT (7/10)
Length of Visible Light 16h 33m
Length of Day
15h 21m
Waxing Gibbous, 76% of the Moon is Illuminated
Jul 10
Waxing Gibbous
Jul 15
Full
Jul 23
Last Quarter
Jul 30
New
Aug 6
First Quarter

Hourly Weather History & Observations

Time (CDT) Temp. Heat Index Dew Point Humidity Pressure Visibility Wind Dir Wind Speed Gust Speed Precip Events Conditions
12:54 AM 73.0 °F - 64.0 °F 73% 29.84 in 10.0 mi South 6.9 mph - N/A   Overcast
1:54 AM 71.1 °F - 64.9 °F 81% 29.83 in 10.0 mi South 4.6 mph - N/A   Scattered Clouds
2:54 AM 71.1 °F - 64.9 °F 81% 29.83 in 10.0 mi South 3.5 mph - N/A   Mostly Cloudy
3:54 AM 71.1 °F - 64.9 °F 81% 29.83 in 10.0 mi South 5.8 mph - N/A   Overcast
4:54 AM 70.0 °F - 64.9 °F 84% 29.83 in 10.0 mi South 4.6 mph - N/A   Overcast
5:54 AM 71.1 °F - 66.0 °F 84% 29.83 in 9.0 mi South 4.6 mph - N/A   Overcast
6:54 AM 72.0 °F - 66.9 °F 84% 29.83 in 8.0 mi South 4.6 mph - N/A   Overcast
7:54 AM 73.0 °F - 66.9 °F 81% 29.86 in 8.0 mi SSW 6.9 mph - N/A   Scattered Clouds
8:54 AM 72.0 °F - 68.0 °F 87% 29.89 in 4.0 mi West 6.9 mph - 0.01 in Rain Light Rain
9:06 AM 71.6 °F - 68.0 °F 88% 29.91 in 2.5 mi West 9.2 mph - 0.03 in Rain Rain
9:16 AM 71.6 °F - 69.8 °F 94% 29.91 in 2.5 mi West 12.7 mph - 0.04 in Rain , Thunderstorm Thunderstorms and Rain
9:43 AM 71.6 °F - 69.8 °F 94% 29.90 in 1.8 mi NW 4.6 mph - 0.13 in Rain Rain
9:54 AM 71.1 °F - 69.1 °F 93% 29.84 in 2.5 mi East 4.6 mph - 0.16 in Rain Rain
10:01 AM 71.6 °F - 69.8 °F 94% 29.86 in 3.0 mi East 3.5 mph - 0.01 in Rain Rain
10:17 AM 71.6 °F - 69.8 °F 94% 29.85 in 6.0 mi ESE 3.5 mph - 0.01 in Rain Light Rain
10:54 AM 73.0 °F - 70.0 °F 90% 29.85 in 8.0 mi South 3.5 mph - 0.01 in   Clear
11:20 AM 73.4 °F - 69.8 °F 88% 29.89 in 9.0 mi SSW 10.4 mph - N/A   Scattered Clouds
11:54 AM 75.0 °F - 70.0 °F 84% 29.86 in 9.0 mi South 9.2 mph - N/A   Scattered Clouds
12:54 PM 79.0 °F - 72.0 °F 79% 29.86 in 10.0 mi SSW 6.9 mph - N/A   Clear
1:54 PM 82.0 °F 86.7 °F 72.0 °F 71% 29.85 in 10.0 mi SSW 10.4 mph - N/A   Partly Cloudy
2:54 PM 82.0 °F 87.4 °F 73.0 °F 74% 29.85 in 10.0 mi SW 10.4 mph - N/A   Clear
3:54 PM 82.9 °F 87.0 °F 70.0 °F 65% 29.86 in 10.0 mi SSW 9.2 mph - N/A   Clear
4:54 PM 82.9 °F 87.0 °F 70.0 °F 65% 29.85 in 10.0 mi SW 8.1 mph - N/A   Clear
5:54 PM 84.0 °F 89.6 °F 72.0 °F 67% 29.83 in 10.0 mi SW 8.1 mph - N/A   Clear
6:54 PM 82.9 °F 87.0 °F 70.0 °F 65% 29.82 in 10.0 mi SSW 8.1 mph - N/A   Clear
8:54 PM 77.0 °F - 72.0 °F 84% 29.82 in 10.0 mi SSE 4.6 mph - N/A   Clear
9:54 PM 75.9 °F - 72.0 °F 87% 29.82 in 8.0 mi South 3.5 mph - N/A   Clear
11:54 PM 75.0 °F - 72.0 °F 90% 29.83 in 6.0 mi Calm Calm - N/A   Clear